This demonstration page uses our WeatherBlox Daily Observations layout. Learn more.

Left ArrowRight Arrow

34.16533, -84.80231

Hourly Observations for April 22, 2020

Temp ( °F °C ) Dew Point ( °F °C ) Humidity (%) Winds ( mph kmh ) Pressure ( in mb ) Visibility ( mi km ) Precip ( " mm )
12:53 am 00:53 Clear 49 9.4 44 6.7 83 83 Calm 30.01 1016 10 16 0.00 0.00
1:53 am 01:53 Clear 47 8.3 42 5.6 83 83 S 3 6 30.02 1017 10 16 0.00 0.00
2:53 am 02:53 Clear 46 7.8 42 5.6 86 86 Calm 30.02 1017 10 16 0.00 0.00
3:53 am 03:53 Clear 47 8.3 41 5 80 80 Calm 30.02 1017 10 16 0.00 0.00
4:53 am 04:53 Clear 45 7.2 40 4.4 83 83 Calm 30.03 1017 10 16 0.00 0.00
5:53 am 05:53 Clear 45 7.2 39 3.9 80 80 Calm 30.06 1018 10 16 0.00 0.00
6:53 am 06:53 Clear 42 5.6 38 3.3 85 85 Calm 30.07 1018 10 16 0.00 0.00
7:53 am 07:53 Sunny 46 7.8 41 5 83 83 Calm 30.10 1019 10 16 0.00 0.00
8:53 am 08:53 Sunny 53 11.7 42 5.6 66 66 Calm 30.10 1019 10 16 0.00 0.00
9:53 am 09:53 Sunny 59 15 39 3.9 48 48 NNE 5 7 30.12 1020 10 16 0.00 0.00
10:53 am 10:53 Sunny 62 16.7 37 2.8 40 40 VRB 5 7 30.13 1020 10 16 0.00 0.00
11:53 am 11:53 Sunny 67 19.4 37 2.8 33 33 N 5 7 30.12 1020 10 16 0.00 0.00
12:53 pm 12:53 Sunny 69 20.6 39 3.9 33 33 Calm 30.11 1020 10 16 0.00 0.00
1:53 pm 13:53 Sunny 69 20.6 38 3.3 32 32 Calm 30.09 1019 10 16 0.00 0.00
2:53 pm 14:53 Sunny 68 20 40 4.4 36 36 VRB 3 6 30.07 1018 10 16 0.00 0.00
3:53 pm 15:53 Sunny 70 21.1 39 3.9 32 32 Calm 30.04 1017 10 16 0.00 0.00
4:53 pm 16:53 Mostly Cloudy 71 21.7 40 4.4 32 32 Calm 29.98 1015 10 16 0.00 0.00
5:53 pm 17:53 Sunny 69 20.6 44 6.7 41 41 VRB 3 6 29.98 1015 10 16 0.00 0.00
6:53 pm 18:53 Cloudy 67 19.4 45 7.2 45 45 SSW 3 6 30.01 1016 10 16 0.00 0.00
7:53 pm 19:53 Partly Cloudy 64 17.8 48 8.9 56 56 SSW 5 7 30.01 1016 10 16 0.00 0.00
8:53 pm 20:53 Cloudy with Light Rain 58 14.4 54 12.2 87 87 Calm 30.01 1016 10 16 0.00 0.00
9:53 pm 21:53 Cloudy 58 14.4 53 11.7 84 84 Calm 30.03 1017 10 16 0.01 0.25
10:53 pm 22:53 Cloudy 58 14.4 54 12.2 87 87 Calm 30.06 1018 10 16 0.00 0.00
11:53 pm 23:53 Cloudy with Light Rain 57 13.9 54 12.2 90 90 Calm 30.09 1019 9 14 0.01 0.25

Powered by AerisWeather